This is the latest recevied weather packets stored in our database for station/object OE-11190. If no packets are shown the sender has not sent any weather packets the latest 10 day(s).
| Time | Temp. | Humidity | Pressure | Rain* | Wind** | Luminosity | Snow |
|---|---|---|---|---|---|---|---|
| 1788318907 | 17.22° C | 65% | 1020.7 hPa | 0 mm | - | 0 W/m² | - |
| 1788318308 | 17.22° C | 65% | 1020.8 hPa | 0 mm | - | 0 W/m² | - |
| 1788317707 | 17.22° C | 64% | 1020.7 hPa | 0 mm | - | 0 W/m² | - |
| 1788317108 | 17.22° C | 65% | 1020.6 hPa | 0 mm | - | 0 W/m² | - |
| 1788316508 | 17.22° C | 65% | 1020.7 hPa | 0 mm | - | 0 W/m² | - |
| 1788315907 | 17.22° C | 66% | 1020.6 hPa | 0 mm | - | 0 W/m² | - |
| 1788315307 | 17.22° C | 66% | 1020.7 hPa | 0 mm | - | 0 W/m² | - |
| 1788314108 | 17.22° C | 67% | 1020.8 hPa | 0 mm | - | 0 W/m² | - |
| 1788313508 | 16.67° C | 68% | 1020.8 hPa | 0 mm | - | 0 W/m² | - |
| 1788312907 | 17.22° C | 67% | 1020.8 hPa | 0 mm | - | 0 W/m² | - |
| 1788312308 | 17.22° C | 68% | 1020.8 hPa | 0 mm | - | 0 W/m² | - |
| 1788311707 | 17.78° C | 66% | 1020.8 hPa | 0 mm | - | 0 W/m² | - |
| 1788311108 | 17.78° C | 65% | 1020.7 hPa | 0 mm | - | 0 W/m² | - |
| 1788310507 | 17.78° C | 65% | 1020.7 hPa | 0 mm | - | 0 W/m² | - |
| 1788300681 | 20° C | 57% | 1020.3 hPa | 0 mm | - | 0 W/m² | - |
| 1788300308 | 20° C | 54% | 1020.3 hPa | 0 mm | - | 0 W/m² | - |
| 1788299708 | 20° C | 56% | 1020.3 hPa | 0 mm | - | 0 W/m² | - |
| 1788298881 | 20.56° C | 56% | 1020.2 hPa | 0 mm | - | 0 W/m² | - |
| 1788298508 | 21.11° C | 52% | 1020.2 hPa | 0 mm | - | 0 W/m² | - |
| 1788297908 | 20.56° C | 53% | 1020.2 hPa | 0 mm | - | 0 W/m² | - |
| 1788297081 | 21.11° C | 54% | 1020.1 hPa | 0 mm | - | 0 W/m² | - |
| 1788296707 | 21.11° C | 54% | 1020 hPa | 0 mm | - | 0 W/m² | - |
| 1788296108 | 21.11° C | 54% | 1020.1 hPa | 0 mm | - | 0 W/m² | - |
| 1788295282 | 21.67° C | 52% | 1020 hPa | 0 mm | - | 0 W/m² | - |
| 1788294908 | 21.67° C | 54% | 1020 hPa | 0 mm | - | 0 W/m² | - |
* Rain latest hour (hover to see other rain measurements)
** Current wind speed in m/s (hover to see current wind gust speed)